COSMOS 1254

Satellite information

Favourite Embed

Satellite Type and Status

PAYLOADIN ORBIT

Key statistics

Satellite COSMOS 1254 at a glance.

Uptime

16258

Days in orbit

Revolutions

≈ 12.5

Per day

Orbit

LEO

Low Earth Orbit

Inclination

74.0

Latest

Satellite identification and parameters

Extended collection of information and parameters for COSMOS 1254.

Object identification

Identified? True

Debris? False

Object name: COSMOS 1254

International designator: 1981-022E

Object number (NORAD): 12324

Object ID (CCSDS): 12324

Country: COMMONWEALTH OF INDEPENDENT STATES (CIS)

Current information (Y/N): Y

RCS size: MEDIUM

Orbital parameters

Period: 114.913 minutes

Inclination: 74.0276 deg

SMA: 7829.597 km

Apoapsis: 1471.867 km

Periapsis: 1431.057 km

RAAN: 219.6244 deg

Eccentricy: 0.00260617

Argument of periapsis: 16.088 deg

Mean anomaly: 103.2934 deg

Mean motion: 12.53122839 rev/day

Mean motion (dot): -0.00000028 rev/day2

B* drag term: -0.000072653177 1/REarth

Two-line elements (TLE)

Creation date: Sept. 8, 2025, 6:18 p.m.

Reference frame: TEME

Reference center: EARTH

Epoch: Sept. 8, 2025, 2:42 p.m. UTC

TLE line 0: 0 COSMOS 1254

TLE line 1: 1 12324U 81022E 25251.61277987 -.00000028 00000-0 -72653-4 0 9996

TLE line 2: 2 12324 74.0276 219.6244 0026062 16.0880 103.2934 12.53122839 36105

Live tracking on map

Real-time ground track for satellite COSMOS 1254.

In-orbit conjunctions

A list of the most updated potential collisions computed for object COSMOS 1254.

Target Orbit TCA Probability of collision Miss distance Type
COSMOS 1823 DEB LEO 2025-04-06 19:44:32 0.0001212021 598.0 (m) DEBRIS

Associated space launch

Military communications satellites

COSMOS 1254 was lifted into orbit during the mission ‘Kosmos-3M | Strela-1M 209-216’, on board a Kosmos-3M space rocket.

The launch took place on March 6, 1981, 11:31 a.m. from 132/2.

For more information about the launch, click the button.

Launch to space Kosmos-3M | Strela-1M 209-216
Kosmos-3M | Strela-1M 209-216

Agency: N/A

Status: Launch Successful

Launch date: March 6, 1981, 11:31 a.m. UTC

Rocket: Kosmos-3M

Launch pad: 132/2

Location: Plesetsk Cosmodrome, Russian Federation

...

Latest news about this satellite

There are no fresh news available about this satellite. Check back as we update our databases every day.


Newsletter sign-up

Weekly statistics, charts and insights to help you stay on top of the space industry.